EWG109 EDDP-EKCH

Flight info

Callsign EWG109
Flight time 0h 50m
Altitude 36000
Route PENEM1E PENEM Y233 ODLUN Z207 MAG M736 SOGMA DCT NOBRI M726 ROSOK Q296 MONAK
Aircraft A320/M-SDE3FGHIRWY/LB1

Departure

Time 2026-05-05 15:29
Airport Leipzig/Halle Airport (EDDP)

Arrival

Time 2026-05-05 16:20
Airport Copenhagen Kastrup Airport (EKCH)
Time Latitude Longitude Altitude Speed Heading
2026-05-05 14:41 51.41934 12.21879 426 ft 0 kts 15°
2026-05-05 14:44 51.41937 12.21881 427 ft 0 kts 15°
2026-05-05 14:49 51.41934 12.21879 427 ft 0 kts 15°
2026-05-05 15:18 51.41928 12.21877 436 ft 4 kts 15°
2026-05-05 15:19 51.41905 12.21866 421 ft 1 kts 15°
2026-05-05 15:19 51.41883 12.21854 431 ft 4 kts 29°
2026-05-05 15:19 51.41860 12.21834 431 ft 4 kts
2026-05-05 15:19 51.41841 12.21838 428 ft 4 kts 347°
2026-05-05 15:20 51.41833 12.21841 427 ft 0 kts 347°
2026-05-05 15:23 51.41834 12.21840 427 ft 0 kts 341°
2026-05-05 15:23 51.41851 12.21770 423 ft 10 kts 284°
2026-05-05 15:24 51.41867 12.21677 427 ft 7 kts 285°
2026-05-05 15:24 51.41883 12.21586 433 ft 10 kts 287°
2026-05-05 15:24 51.41899 12.21489 425 ft 9 kts 285°
2026-05-05 15:24 51.41914 12.21390 430 ft 10 kts 282°
2026-05-05 15:25 51.41935 12.21281 427 ft 11 kts 286°
2026-05-05 15:25 51.41956 12.21162 421 ft 8 kts 285°
2026-05-05 15:25 51.41963 12.21118 429 ft 0 kts 282°
2026-05-05 15:25 51.41965 12.21103 429 ft 2 kts 282°
2026-05-05 15:26 51.41970 12.21072 420 ft 8 kts 285°
2026-05-05 15:26 51.41978 12.21026 427 ft 11 kts 286°
2026-05-05 15:26 51.41958 12.20880 423 ft 17 kts 210°
2026-05-05 15:27 51.41841 12.20827 425 ft 19 kts 195°
2026-05-05 15:27 51.41680 12.20758 429 ft 26 kts 194°
2026-05-05 15:27 51.41506 12.20681 424 ft 26 kts 195°
2026-05-05 15:27 51.41337 12.20608 428 ft 25 kts 195°
2026-05-05 15:28 51.41187 12.20569 429 ft 19 kts 150°
2026-05-05 15:28 51.41172 12.20700 439 ft 8 kts 81°
2026-05-05 15:28 51.41177 12.20824 435 ft 27 kts 86°
2026-05-05 15:28 51.41213 12.21573 454 ft 103 kts 85°
2026-05-05 15:29 51.41281 12.23041 469 ft 159 kts 86°
2026-05-05 15:29 51.41371 12.24980 749 ft 185 kts 84°
2026-05-05 15:29 51.41478 12.27035 1538 ft 183 kts 85°
2026-05-05 15:29 51.41572 12.29086 2234 ft 191 kts 86°
2026-05-05 15:30 51.41673 12.31326 2587 ft 213 kts 86°
2026-05-05 15:30 51.41784 12.33837 2991 ft 239 kts 86°
2026-05-05 15:30 51.41960 12.36615 3564 ft 260 kts 76°
2026-05-05 15:30 51.42714 12.39276 4447 ft 267 kts 53°
2026-05-05 15:31 51.44092 12.41282 5406 ft 271 kts 29°
2026-05-05 15:31 51.45875 12.42248 6374 ft 274 kts
2026-05-05 15:31 51.47776 12.41979 7321 ft 277 kts 345°
2026-05-05 15:31 51.49651 12.41177 8281 ft 280 kts 344°
2026-05-05 15:32 51.51549 12.40359 9202 ft 284 kts 344°
2026-05-05 15:32 51.53445 12.39394 10094 ft 288 kts 336°
2026-05-05 15:32 51.55199 12.37776 10805 ft 299 kts 323°
2026-05-05 15:32 51.56749 12.35380 11200 ft 319 kts 307°
2026-05-05 15:33 51.57904 12.32284 11922 ft 327 kts 293°
2026-05-05 15:33 51.58693 12.28806 12594 ft 336 kts 289°
2026-05-05 15:33 51.59467 12.25223 13330 ft 341 kts 289°
2026-05-05 15:33 51.60458 12.21741 14054 ft 346 kts 301°
2026-05-05 15:34 51.61919 12.18642 14785 ft 350 kts 314°
2026-05-05 15:34 51.63789 12.16105 15486 ft 354 kts 326°
2026-05-05 15:34 51.65887 12.13977 16182 ft 358 kts 328°
2026-05-05 15:34 51.68007 12.11833 16888 ft 361 kts 327°
2026-05-05 15:35 51.70128 12.09629 17544 ft 365 kts 323°
2026-05-05 15:35 51.72046 12.06914 18180 ft 369 kts 313°
2026-05-05 15:35 51.73776 12.03852 18809 ft 372 kts 312°
2026-05-05 15:35 51.75528 12.00743 19436 ft 375 kts 312°
2026-05-05 15:36 51.77291 11.97616 20043 ft 379 kts 312°
2026-05-05 15:36 51.79072 11.94457 20630 ft 382 kts 312°
2026-05-05 15:36 51.80872 11.91262 21200 ft 385 kts 312°
2026-05-05 15:36 51.82721 11.88105 21733 ft 389 kts 317°
2026-05-05 15:37 51.84882 11.85449 22253 ft 393 kts 328°
2026-05-05 15:37 51.87339 11.83500 22769 ft 396 kts 339°
2026-05-05 15:37 51.90005 11.82323 23264 ft 399 kts 349°
2026-05-05 15:37 51.92747 11.81494 23762 ft 402 kts 349°
2026-05-05 15:38 51.95506 11.80654 24246 ft 405 kts 349°
2026-05-05 15:38 51.98297 11.79873 24704 ft 408 kts 353°
2026-05-05 15:38 52.01145 11.79732 25152 ft 411 kts
2026-05-05 15:38 52.04002 11.80188 25589 ft 414 kts
2026-05-05 15:39 52.06878 11.80683 26019 ft 417 kts
2026-05-05 15:39 52.09771 11.81178 26439 ft 420 kts
2026-05-05 15:39 52.12685 11.81680 26848 ft 422 kts
2026-05-05 15:39 52.15618 11.82189 27252 ft 425 kts
2026-05-05 15:40 52.18524 11.82692 27635 ft 428 kts
2026-05-05 15:40 52.21490 11.83201 28022 ft 430 kts
2026-05-05 15:40 52.24487 11.83711 28404 ft 433 kts
2026-05-05 15:40 52.27488 11.84228 28776 ft 435 kts
2026-05-05 15:41 52.30505 11.84758 29140 ft 438 kts
2026-05-05 15:41 52.33545 11.85291 29494 ft 440 kts
2026-05-05 15:41 52.36595 11.85825 29834 ft 442 kts
2026-05-05 15:41 52.39661 11.86360 30165 ft 445 kts
2026-05-05 15:42 52.42747 11.86897 30482 ft 447 kts
2026-05-05 15:42 52.45842 11.87433 30786 ft 449 kts
2026-05-05 15:42 52.48962 11.87973 31085 ft 451 kts
2026-05-05 15:42 52.52089 11.88517 31377 ft 453 kts
2026-05-05 15:43 52.55229 11.89070 31658 ft 455 kts
2026-05-05 15:43 52.58379 11.89628 32041 ft 455 kts
2026-05-05 15:43 52.61531 11.89995 32442 ft 453 kts 359°
2026-05-05 15:43 52.64670 11.89608 32827 ft 452 kts 351°
2026-05-05 15:44 52.67725 11.88440 33207 ft 451 kts 342°
2026-05-05 15:44 52.70718 11.86913 33572 ft 450 kts 342°
2026-05-05 15:44 52.73744 11.85606 33935 ft 449 kts 352°
2026-05-05 15:44 52.76862 11.85473 34286 ft 449 kts
2026-05-05 15:45 52.79973 11.85909 34640 ft 449 kts
2026-05-05 15:45 52.83080 11.86367 34985 ft 448 kts
2026-05-05 15:45 52.86180 11.86839 35319 ft 447 kts
2026-05-05 15:45 52.89235 11.87312 35636 ft 446 kts
2026-05-05 15:46 52.92364 11.87796 35925 ft 447 kts
2026-05-05 15:46 52.98477 11.88720 36009 ft 441 kts
2026-05-05 15:47 53.04583 11.89625 36010 ft 440 kts
2026-05-05 15:47 53.10676 11.90544 36008 ft 440 kts
2026-05-05 15:48 53.16810 11.91476 36008 ft 440 kts
2026-05-05 15:48 53.22904 11.92402 36009 ft 440 kts
2026-05-05 15:49 53.29000 11.93329 36010 ft 440 kts
2026-05-05 15:49 53.35090 11.94260 36011 ft 440 kts
2026-05-05 15:50 53.41186 11.95191 36013 ft 440 kts
2026-05-05 15:50 53.47281 11.96124 36014 ft 440 kts
2026-05-05 15:51 53.52389 11.96911 36015 ft 440 kts
2026-05-05 15:51 53.58488 11.97857 36014 ft 440 kts
2026-05-05 15:52 53.64540 11.98798 36015 ft 440 kts
2026-05-05 15:52 53.70636 11.99742 36016 ft 440 kts
2026-05-05 15:53 53.76732 12.00690 35928 ft 441 kts
2026-05-05 15:53 53.79784 12.01171 35677 ft 440 kts
2026-05-05 15:53 53.82818 12.01650 35303 ft 437 kts
2026-05-05 15:53 53.85837 12.02124 34717 ft 434 kts
2026-05-05 15:54 53.88839 12.02592 34140 ft 432 kts
2026-05-05 15:54 53.91827 12.03055 33577 ft 430 kts
2026-05-05 15:54 53.94798 12.03515 33014 ft 427 kts
2026-05-05 15:54 53.97751 12.03975 32450 ft 425 kts
2026-05-05 15:55 54.00687 12.04438 31891 ft 423 kts
2026-05-05 15:55 54.03605 12.04904 31339 ft 420 kts
2026-05-05 15:55 54.06512 12.05368 30799 ft 417 kts
2026-05-05 15:55 54.09396 12.05829 30248 ft 414 kts
2026-05-05 15:56 54.12253 12.06286 29718 ft 411 kts
2026-05-05 15:56 54.15096 12.06736 29192 ft 408 kts
2026-05-05 15:56 54.17913 12.07179 28678 ft 405 kts
2026-05-05 15:56 54.20663 12.07709 28175 ft 401 kts 10°
2026-05-05 15:57 54.23385 12.08899 27700 ft 397 kts 17°
2026-05-05 15:57 54.25971 12.10259 27239 ft 392 kts 17°
2026-05-05 15:57 54.28569 12.11613 26786 ft 388 kts 17°
2026-05-05 15:57 54.31168 12.12962 26334 ft 383 kts 17°
2026-05-05 15:58 54.33636 12.14244 25900 ft 379 kts 17°
2026-05-05 15:58 54.36114 12.15534 25472 ft 375 kts 17°
2026-05-05 15:58 54.38581 12.16821 25038 ft 371 kts 17°
2026-05-05 15:58 54.41036 12.18106 24582 ft 368 kts 17°
2026-05-05 15:59 54.43473 12.19382 24157 ft 364 kts 17°
2026-05-05 15:59 54.45887 12.20647 23718 ft 361 kts 17°
2026-05-05 15:59 54.48287 12.21906 23249 ft 358 kts 17°
2026-05-05 15:59 54.50663 12.23156 22804 ft 356 kts 17°
2026-05-05 16:00 54.52970 12.24375 22364 ft 354 kts 17°
2026-05-05 16:00 54.55323 12.25624 21918 ft 352 kts 17°
2026-05-05 16:00 54.57662 12.26868 21471 ft 350 kts 17°
2026-05-05 16:00 54.59981 12.28056 21032 ft 348 kts 13°
2026-05-05 16:01 54.62357 12.28694 20607 ft 346 kts
2026-05-05 16:01 54.64769 12.28893 20170 ft 343 kts
2026-05-05 16:01 54.67144 12.29082 19743 ft 341 kts
2026-05-05 16:01 54.69511 12.29268 19319 ft 339 kts
2026-05-05 16:02 54.71863 12.29457 18902 ft 337 kts
2026-05-05 16:02 54.74205 12.29651 18484 ft 336 kts
2026-05-05 16:02 54.76533 12.29848 18073 ft 334 kts
2026-05-05 16:02 54.78828 12.30044 17666 ft 332 kts
2026-05-05 16:03 54.81140 12.30237 17257 ft 331 kts
2026-05-05 16:03 54.83437 12.30427 16853 ft 329 kts
2026-05-05 16:03 54.85721 12.30616 16453 ft 328 kts
2026-05-05 16:03 54.87999 12.30806 16056 ft 327 kts
2026-05-05 16:04 54.90273 12.30998 15659 ft 326 kts
2026-05-05 16:04 54.92531 12.31262 15262 ft 325 kts
2026-05-05 16:04 54.94717 12.32201 14858 ft 324 kts 20°
2026-05-05 16:04 54.96740 12.33926 14443 ft 324 kts 32°
2026-05-05 16:05 54.98607 12.36120 14034 ft 323 kts 34°
2026-05-05 16:05 55.00472 12.38313 13640 ft 322 kts 33°
2026-05-05 16:05 55.02326 12.40478 13256 ft 320 kts 33°
2026-05-05 16:05 55.04178 12.42627 12855 ft 319 kts 33°
2026-05-05 16:06 55.06021 12.44765 12460 ft 317 kts 33°
2026-05-05 16:06 55.07853 12.46898 12064 ft 316 kts 33°
2026-05-05 16:06 55.09674 12.49029 11658 ft 314 kts 33°
2026-05-05 16:06 55.11484 12.51152 11255 ft 313 kts 33°
2026-05-05 16:07 55.13286 12.53265 10852 ft 311 kts 33°
2026-05-05 16:07 55.15080 12.55372 10441 ft 310 kts 33°
2026-05-05 16:07 55.16860 12.57467 10099 ft 306 kts 33°
2026-05-05 16:07 55.18590 12.59509 9937 ft 295 kts 33°
2026-05-05 16:08 55.20282 12.61506 9649 ft 291 kts 33°
2026-05-05 16:08 55.21955 12.63476 9288 ft 289 kts 33°
2026-05-05 16:08 55.23640 12.65373 8904 ft 287 kts 28°
2026-05-05 16:08 55.25380 12.67041 8594 ft 284 kts 28°
2026-05-05 16:09 55.27113 12.68715 8277 ft 283 kts 28°
2026-05-05 16:09 55.28832 12.70381 7868 ft 282 kts 28°
2026-05-05 16:09 55.30551 12.72050 7406 ft 283 kts 28°
2026-05-05 16:09 55.32282 12.73684 6961 ft 282 kts 23°
2026-05-05 16:10 55.34182 12.74413 6510 ft 281 kts 359°
2026-05-05 16:10 55.36071 12.73712 6060 ft 279 kts 335°
2026-05-05 16:10 55.37628 12.71747 5612 ft 277 kts 311°
2026-05-05 16:10 55.38842 12.69123 5155 ft 276 kts 308°
2026-05-05 16:11 55.40028 12.66486 4706 ft 275 kts 308°
2026-05-05 16:11 55.42339 12.57760 3355 ft 269 kts 259°
2026-05-05 16:12 55.41591 12.54818 3080 ft 261 kts 231°
2026-05-05 16:12 55.39144 12.50660 3064 ft 233 kts 237°
2026-05-05 16:13 55.40053 12.43269 3066 ft 214 kts 311°
2026-05-05 16:13 55.41011 12.41374 3079 ft 199 kts 313°
2026-05-05 16:13 55.42056 12.39990 3067 ft 180 kts 332°
2026-05-05 16:14 55.44271 12.39215 3067 ft 153 kts
2026-05-05 16:14 55.46150 12.40359 3068 ft 142 kts 33°
2026-05-05 16:15 55.47662 12.42587 2937 ft 141 kts 40°
2026-05-05 16:15 55.49140 12.44850 2616 ft 140 kts 40°
2026-05-05 16:16 55.50606 12.47099 2253 ft 139 kts 40°
2026-05-05 16:16 55.52064 12.49336 1883 ft 139 kts 40°
2026-05-05 16:17 55.53513 12.51563 1515 ft 138 kts 40°
2026-05-05 16:17 55.54236 12.52674 1338 ft 137 kts 40°
2026-05-05 16:18 55.55671 12.54882 978 ft 137 kts 40°
2026-05-05 16:18 55.56386 12.55984 791 ft 136 kts 40°
2026-05-05 16:18 55.57810 12.58180 394 ft 135 kts 40°
2026-05-05 16:19 55.58518 12.59270 219 ft 135 kts 40°
2026-05-05 16:19 55.59225 12.60359 44 ft 134 kts 40°
2026-05-05 16:19 55.60445 12.62240 19 ft 65 kts 40°
2026-05-05 16:20 55.60896 12.62838 21 ft 20 kts 15°
2026-05-05 16:20 55.61128 12.62944 19 ft 2 kts 52°
2026-05-05 16:21 55.61149 12.62972 18 ft 4 kts 32°
2026-05-05 16:22 55.61291 12.63178 18 ft 21 kts 40°
2026-05-05 16:22 55.61533 12.63553 17 ft 25 kts 41°
2026-05-05 16:23 55.61814 12.63986 17 ft 28 kts 41°
2026-05-05 16:23 55.61984 12.64167 17 ft 29 kts 24°
2026-05-05 16:23 55.62287 12.64511 17 ft 21 kts 81°
2026-05-05 16:24 55.62307 12.64637 18 ft 0 kts 52°
2026-05-05 16:24 55.62339 12.64672 17 ft 6 kts 17°
2026-05-05 16:25 55.62427 12.64671 17 ft 15 kts 357°
2026-05-05 16:25 55.62635 12.64664 17 ft 15 kts 12°
2026-05-05 16:25 55.62683 12.64661 17 ft 4 kts 303°
2026-05-05 16:26 55.62695 12.64588 17 ft 3 kts 282°
2026-05-05 16:26 55.62696 12.64581 17 ft 0 kts 282°